Regional Weather Roundup
Issued by NWS Cleveland, OH

Home | Current Version | Previous Version | Graphics & Text | Print | Product List | Glossary On
Versions: 1 2 3 4 5 6 7 8 9 10 11 12 13 14 15 16 17 18 19 20 21 22 23 24 25 26 27 28 29 30 31 32 33 34 35 36 37 38 39 40 41 42 43 44 45 46 47 48 49 50
000
ASUS41 KCLE 162010
RWRCLE
OHIO REGIONAL WEATHER ROUNDUP
NATIONAL WEATHER SERVICE CLEVELAND, OH
400 PM EDT MON OCT 16 2017

NOTE: "FAIR" INDICATES FEW OR NO CLOUDS BELOW 12,000 FEET WITH NO
SIGNIFICANT WEATHER AND/OR OBSTRUCTIONS TO VISIBILITY.

OHZ001>008-015>018-024>027-034-035-043-044-162100-
   NORTHWEST OHIO

CITY           SKY/WX    TMP DP  RH WIND       PRES   REMARKS
DEFIANCE       CLOUDY    55  41  59 E5        30.27F
FINDLAY        CLOUDY    57  37  47 W8        30.27S
TOLEDO EXPRESS CLOUDY    58  40  51 W3        30.26F
TOLEDO EXEC    PTSUNNY   57  37  47 W8        30.27F
LIMA           CLOUDY    55  38  52 NW8       30.28S
$$

OHZ009>014-019>023-028>033-038-089-162100-
   NORTHEAST OHIO

CITY           SKY/WX    TMP DP  RH WIND       PRES   REMARKS
CLE-HOPKINS    MOSUNNY   56  35  45 N12       30.29R
CLE-LAKEFRONT  SUNNY     54  36  50 NW9       30.27R
CUY CO. ARPT   MOSUNNY   54  36  50 NW12      30.27S
LORAIN-ELYRIA  SUNNY     55  30  38 N8        30.28S
ASHTABULA      MOSUNNY   53  34  48 NW12G20   30.26R
AKRON-CANTON   MOSUNNY   58  31  35 NW8       30.24S
WOOSTER        CLOUDY    53  34  48 NW12      30.27R
MANSFIELD      CLOUDY    58  35  42 NW10      30.26S
YOUNGSTOWN     PTSUNNY   57  33  40 W10       30.22S
$$

OHZ042-051>053-060>062-070>072-077>081-162100-
  SOUTHWEST OHIO

CITY           SKY/WX    TMP DP  RH WIND       PRES   REMARKS
CINC-COVINGTON MOSUNNY   61  36  39 N8        30.28F
CINC-LUNKEN    PTSUNNY   59  39  47 NW6       30.30S
HAMILTON       MOSUNNY   62  38  40 CALM      30.30S
DAYTON         PTSUNNY   58  38  47 NW12      30.29S
WRIGHT-PAT AFB PTSUNNY   60  33  36 NW9       30.28S
DAYTON GENERAL PTSUNNY   61  35  37 N7        30.28S
WILMINGTON     MOSUNNY   58  41  53 NW8       30.28S
$$

OHZ036-037-039>041-045>050-054>059-063>069-073>076-082>088-162100-
  CENTRAL AND SOUTHEAST OHIO

CITY           SKY/WX    TMP DP  RH WIND       PRES   REMARKS
COLUMBUS       MOSUNNY   61  40  45 NW12G20   30.27S
OSU AIRPORT    PTSUNNY   56  40  55 N8        30.27S
BOLTON FIELD   CLOUDY    55  37  50 NW7       30.28R
RICKENBACK AFB CLOUDY    56  37  48 NW10      30.27S
NEWARK         CLOUDY    57  36  45 NW10G18   30.26S
MARION         CLOUDY    56  37  49 N7        30.28S
LANCASTER      MOSUNNY   58  36  43 NW10      30.27F
ZANESVILLE     SUNNY     58  37  45 NW7       30.25S
NEW PHILLY     NOT AVBL
$$




USA.gov is the U.S. government's official web portal to all federal, state and local government web resources and services.